• In Österreich
  • Länderverzeichnis
  • Für 7 Tage
  • Wassertemperatur
  • Satellitenkarten
  • Wetterkarte
  • News
  • Widgets
  • user-avatar
    Anmelden

    Stündliche Wetter Grado

    Heute, 22 Juni, Freitag

    Zeit Temperatur Niederschläge Wind Luftdruck Luftfeuchtigkeit
    00:00 +22°C° 0,8 mm 3 m/S 759 mmHg 89%
    01:00 +21°C° 0 mm 2 m/S 759 mmHg 90%
    02:00 +21°C° 1 mm 3 m/S 759 mmHg 91%
    03:00 +21°C° 1 mm 3 m/S 759 mmHg 92%
    04:00 +21°C° 1 mm 4 m/S 759 mmHg 93%
    05:00 +21°C° 4,4 mm 4 m/S 759 mmHg 93%
    06:00 +21°C° 4,4 mm 4 m/S 759 mmHg 93%
    07:00 +20°C° 0 mm 5 m/S 760 mmHg 92%
    08:00 +20°C° 4,5 mm 5 m/S 760 mmHg 92%
    09:00 +19°C° 4,5 mm 6 m/S 760 mmHg 91%
    10:00 +18°C° 4,5 mm 7 m/S 761 mmHg 91%
    11:00 +18°C° 0,3 mm 7 m/S 761 mmHg 87%
    12:00 +18°C° 0,3 mm 7 m/S 761 mmHg 82%
    13:00 +20°C° 0 mm 7 m/S 762 mmHg 76%
    14:00 +20°C° 0,1 mm 6 m/S 762 mmHg 72%
    15:00 +21°C° 0,1 mm 6 m/S 762 mmHg 67%
    16:00 +22°C° 0,1 mm 5 m/S 762 mmHg 63%
    17:00 +21°C° 0 mm 5 m/S 762 mmHg 67%
    18:00 +20°C° 0 mm 4 m/S 763 mmHg 71%
    19:00 +19°C° 0 mm 4 m/S 763 mmHg 75%
    20:00 +18°C° 0 mm 4 m/S 764 mmHg 77%
    21:00 +16°C° 0 mm 5 m/S 765 mmHg 79%
    22:00 +14°C° 0 mm 5 m/S 765 mmHg 80%
    23:00 +14°C° 0 mm 5 m/S 766 mmHg 80%

    Morgen, 23 Juni, Samstag

    Zeit Temperatur Niederschläge Wind Luftdruck Luftfeuchtigkeit
    00:00 +14°C° 0 mm 5 m/S 766 mmHg 79%
    01:00 +13°C° 0 mm 5 m/S 766 mmHg 78%
    02:00 +13°C° 0 mm 4 m/S 766 mmHg 78%
    03:00 +12°C° 0 mm 4 m/S 767 mmHg 78%
    04:00 +12°C° 0 mm 4 m/S 767 mmHg 78%
    05:00 +13°C° 0 mm 4 m/S 767 mmHg 72%
    06:00 +16°C° 0 mm 3 m/S 766 mmHg 67%
    07:00 +17°C° 0 mm 3 m/S 766 mmHg 62%
    08:00 +19°C° 0 mm 3 m/S 766 mmHg 55%
    09:00 +21°C° 0 mm 2 m/S 766 mmHg 49%
    10:00 +24°C° 0 mm 2 m/S 766 mmHg 43%
    11:00 +24°C° 0 mm 2 m/S 765 mmHg 42%
    12:00 +25°C° 0 mm 2 m/S 765 mmHg 40%
    13:00 +26°C° 0 mm 2 m/S 765 mmHg 39%
    14:00 +26°C° 0 mm 2 m/S 764 mmHg 41%
    15:00 +25°C° 0 mm 2 m/S 764 mmHg 43%
    16:00 +25°C° 0 mm 2 m/S 763 mmHg 45%
    17:00 +24°C° 0 mm 2 m/S 764 mmHg 53%
    18:00 +23°C° 0 mm 2 m/S 764 mmHg 61%
    19:00 +21°C° 0 mm 1 m/S 764 mmHg 70%
    20:00 +19°C° 0 mm 2 m/S 764 mmHg 71%
    21:00 +18°C° 0 mm 2 m/S 765 mmHg 73%
    22:00 +17°C° 0 mm 2 m/S 765 mmHg 74%
    23:00 +17°C° 0 mm 2 m/S 765 mmHg 75%

    übermorgen, 24 Juni, Sonntag

    Zeit Temperatur Niederschläge Wind Luftdruck Luftfeuchtigkeit
    00:00 +16°C° 0 mm 2 m/S 765 mmHg 75%
    01:00 +16°C° 0 mm 2 m/S 765 mmHg 75%
    02:00 +15°C° 0 mm 2 m/S 765 mmHg 76%
    03:00 +14°C° 0 mm 3 m/S 765 mmHg 77%
    04:00 +13°C° 0 mm 3 m/S 765 mmHg 77%
    05:00 +16°C° 0 mm 3 m/S 765 mmHg 73%
    06:00 +17°C° 0 mm 3 m/S 765 mmHg 69%
    07:00 +19°C° 0 mm 3 m/S 765 mmHg 65%
    08:00 +20°C° 0 mm 2 m/S 764 mmHg 59%
    09:00 +23°C° 0 mm 2 m/S 764 mmHg 53%
    10:00 +25°C° 0 mm 2 m/S 764 mmHg 47%
    11:00 +25°C° 0,1 mm 2 m/S 764 mmHg 48%
    12:00 +26°C° 0,1 mm 2 m/S 764 mmHg 48%
    13:00 +26°C° 0,1 mm 2 m/S 763 mmHg 48%
    14:00 +26°C° 0,2 mm 2 m/S 763 mmHg 52%
    15:00 +26°C° 0,2 mm 1 m/S 763 mmHg 56%
    16:00 +25°C° 0,2 mm 1 m/S 763 mmHg 59%
    17:00 +24°C° 0,2 mm 1 m/S 763 mmHg 65%
    18:00 +23°C° 0,2 mm 2 m/S 763 mmHg 71%
    19:00 +20°C° 0,2 mm 2 m/S 763 mmHg 77%
    20:00 +20°C° 0,1 mm 2 m/S 764 mmHg 78%
    21:00 +19°C° 0,1 mm 3 m/S 764 mmHg 80%
    22:00 +18°C° 0,1 mm 3 m/S 764 mmHg 81%
    23:00 +18°C° 0,1 mm 3 m/S 764 mmHg 82%

    25 Juni, Montag

    Zeit Temperatur Niederschläge Wind Luftdruck Luftfeuchtigkeit
    00:00 +17°C° 0,1 mm 3 m/S 764 mmHg 83%
    01:00 +17°C° 0,1 mm 3 m/S 764 mmHg 84%
    02:00 +16°C° 0 mm 3 m/S 764 mmHg 84%
    03:00 +16°C° 0 mm 3 m/S 764 mmHg 84%
    04:00 +14°C° 0 mm 4 m/S 764 mmHg 85%
    05:00 +17°C° 0 mm 4 m/S 764 mmHg 81%
    06:00 +18°C° 0 mm 4 m/S 764 mmHg 77%
    07:00 +19°C° 0 mm 4 m/S 764 mmHg 74%
    08:00 +21°C° 0 mm 4 m/S 764 mmHg 65%
    09:00 +24°C° 0 mm 3 m/S 764 mmHg 56%
    10:00 +26°C° 0 mm 3 m/S 764 mmHg 47%
    11:00 +26°C° 0 mm 3 m/S 764 mmHg 45%
    12:00 +27°C° 0 mm 2 m/S 764 mmHg 43%
    13:00 +27°C° 0 mm 2 m/S 764 mmHg 41%
    14:00 +27°C° 0 mm 2 m/S 764 mmHg 44%
    15:00 +27°C° 0 mm 2 m/S 764 mmHg 47%
    16:00 +27°C° 0 mm 2 m/S 763 mmHg 50%
    17:00 +26°C° 0,1 mm 2 m/S 764 mmHg 57%
    18:00 +24°C° 0,1 mm 2 m/S 764 mmHg 65%
    19:00 +23°C° 0,1 mm 2 m/S 764 mmHg 72%
    20:00 +21°C° 0 mm 2 m/S 765 mmHg 75%
    21:00 +19°C° 0 mm 3 m/S 766 mmHg 78%
    22:00 +18°C° 0 mm 3 m/S 766 mmHg 80%
    23:00 +17°C° 0,1 mm 3 m/S 766 mmHg 81%

    26 Juni, Dienstag

    Zeit Temperatur Niederschläge Wind Luftdruck Luftfeuchtigkeit
    00:00 +17°C° 0,1 mm 3 m/S 766 mmHg 82%
    01:00 +15°C° 0,1 mm 4 m/S 766 mmHg 82%
    02:00 +15°C° 0 mm 4 m/S 766 mmHg 82%
    03:00 +15°C° 0 mm 4 m/S 766 mmHg 82%
    04:00 +14°C° 0 mm 4 m/S 766 mmHg 81%
    05:00 +17°C° 0 mm 4 m/S 766 mmHg 76%
    06:00 +18°C° 0 mm 4 m/S 766 mmHg 71%
    07:00 +20°C° 0 mm 4 m/S 766 mmHg 66%
    08:00 +22°C° 0 mm 4 m/S 766 mmHg 59%
    09:00 +25°C° 0 mm 4 m/S 766 mmHg 52%
    10:00 +26°C° 0 mm 4 m/S 765 mmHg 45%
    11:00 +27°C° 0 mm 4 m/S 765 mmHg 43%
    12:00 +28°C° 0 mm 3 m/S 765 mmHg 41%
    13:00 +29°C° 0 mm 3 m/S 765 mmHg 39%
    14:00 +29°C° 0 mm 3 m/S 765 mmHg 41%
    15:00 +29°C° 0 mm 3 m/S 765 mmHg 42%
    16:00 +29°C° 0 mm 4 m/S 764 mmHg 44%
    17:00 +27°C° 0 mm 3 m/S 765 mmHg 50%
    18:00 +26°C° 0 mm 3 m/S 765 mmHg 56%
    19:00 +25°C° 0 mm 3 m/S 765 mmHg 63%
    20:00 +22°C° 0 mm 3 m/S 765 mmHg 64%
    21:00 +21°C° 0 mm 4 m/S 766 mmHg 66%
    22:00 +20°C° 0 mm 5 m/S 766 mmHg 67%
    23:00 +20°C° 0 mm 5 m/S 766 mmHg 68%

    27 Juni, Mittwoch

    Zeit Temperatur Niederschläge Wind Luftdruck Luftfeuchtigkeit
    00:00 +19°C° 0 mm 5 m/S 766 mmHg 68%
    01:00 +19°C° 0 mm 5 m/S 766 mmHg 68%
    02:00 +17°C° 0 mm 5 m/S 766 mmHg 69%
    03:00 +18°C° 0 mm 4 m/S 766 mmHg 69%
    04:00 +18°C° 0 mm 4 m/S 766 mmHg 70%
    05:00 +19°C° 0 mm 4 m/S 766 mmHg 67%
    06:00 +20°C° 0 mm 4 m/S 766 mmHg 64%
    07:00 +22°C° 0 mm 5 m/S 766 mmHg 62%
    08:00 +25°C° 0 mm 4 m/S 766 mmHg 56%
    09:00 +27°C° 0 mm 4 m/S 765 mmHg 49%
    10:00 +28°C° 0 mm 4 m/S 765 mmHg 43%
    11:00 +29°C° 0 mm 4 m/S 765 mmHg 41%
    12:00 +30°C° 0 mm 4 m/S 765 mmHg 39%
    13:00 +32°C° 0 mm 4 m/S 764 mmHg 37%
    14:00 +32°C° 0 mm 4 m/S 764 mmHg 37%
    15:00 +32°C° 0 mm 4 m/S 764 mmHg 38%
    16:00 +32°C° 0 mm 4 m/S 764 mmHg 39%
    17:00 +29°C° 0 mm 4 m/S 764 mmHg 47%
    18:00 +28°C° 0 mm 4 m/S 764 mmHg 54%
    19:00 +26°C° 0 mm 4 m/S 765 mmHg 62%
    20:00 +25°C° 0 mm 4 m/S 765 mmHg 63%
    21:00 +22°C° 0 mm 4 m/S 766 mmHg 65%
    22:00 +21°C° 0 mm 4 m/S 766 mmHg 66%
    23:00 +21°C° 0 mm 4 m/S 766 mmHg 67%
    Mehr zeigen